EW2670 Weather Reports


Display with metric or nautical units.
time (UTC)temp
F
wind
direction
speed
MPH
gust
MPH
rain 1hr
in
rain 24hr
in
rain mn
in
humidity
%
barometer
mb
20260509034518 56 225 2.0 3.0 0.00 0.00 0.00 62 1009.1
20260509034017 55 225 2.0 3.0 0.00 0.00 0.00 64 1009.0
20260509033517 54 225 1.0 2.0 0.00 0.00 0.00 65 1009.0
20260509033016 53 225 1.0 2.0 0.00 0.00 0.00 66 1009.0
20260509032517 54 225 1.0 2.0 0.00 0.00 0.00 65 1008.9
20260509032036 54 0.0 2.0 0.00 0.00 0.00 64 1008.9
20260509031517 55 225 1.0 1.0 0.00 0.00 0.00 63 1009.0
20260509031017 56 225 2.0 3.0 0.00 0.00 0.00 60 1008.8
20260509030516 57 225 2.0 3.0 0.00 0.00 0.00 56 1008.8
20260509030017 58 157 1.0 3.0 0.00 0.00 0.00 53 1008.9
20260509025517 59 0.0 2.0 0.00 0.00 0.00 50 1008.8
20260509025016 60 0.0 0.0 0.00 0.00 0.00 49 1008.8
20260509024517 61 0.0 0.0 0.00 0.00 0.00 47 1008.6
20260509024016 60 0.0 0.0 0.00 0.00 0.00 47 1008.6
20260509023516 60 0.0 0.0 0.00 0.00 0.00 49 1008.3
20260509023017 60 0.0 1.0 0.00 0.00 0.00 48 1008.3
20260509022517 60 0.0 2.0 0.00 0.00 0.00 48 1008.3
20260509022016 60 0.0 0.0 0.00 0.00 0.00 47 1008.3
20260509021517 61 0.0 0.0 0.00 0.00 0.00 47 1008.2
20260509021016 61 0.0 1.0 0.00 0.00 0.00 46 1008.2
20260509020517 61 0.0 1.0 0.00 0.00 0.00 46 1008.4
20260509020016 62 112 1.0 1.0 0.00 0.00 0.00 45 1008.3
20260509015537 62 112 1.0 2.0 0.00 0.00 0.00 45 1008.3
20260509015016 63 112 1.0 3.0 0.00 0.00 0.00 44 1008.3
20260509014517 63 112 3.0 4.0 0.00 0.00 0.00 43 1008.3
20260509014018 64 90 3.0 5.0 0.00 0.00 0.00 43 1008.2
20260509013517 65 90 5.0 7.0 0.00 0.00 0.00 41 1008.2
20260509013016 65 90 7.0 9.0 0.00 0.00 0.00 40 1008.2
20260509012517 65 90 5.0 8.0 0.00 0.00 0.00 41 1008.2
20260509012018 64 90 4.0 6.0 0.00 0.00 0.00 42 1008.2
20260509011516 66 90 5.0 9.0 0.00 0.00 0.00 41 1008.3
20260509011016 67 135 3.0 7.0 0.00 0.00 0.00 37 1008.2
20260509010517 67 112 6.0 9.0 0.00 0.00 0.00 37 1008.3
20260509010036 67 112 4.0 7.0 0.00 0.00 0.00 37 1008.2
20260509005516 67 112 1.0 3.0 0.00 0.00 0.00 37 1008.2
20260509005016 67 112 6.0 8.0 0.00 0.00 0.00 37 1008.3
20260509004516 67 112 7.0 9.0 0.00 0.00 0.00 38 1008.3
20260509004036 68 112 5.0 10.0 0.00 0.00 0.00 37 1008.3
20260509003537 68 112 5.0 9.0 0.00 0.00 0.00 37 1008.2
20260509003036 68 112 5.0 9.0 0.00 0.00 0.00 38 1008.3
20260509002516 68 90 7.0 11.0 0.00 0.00 0.00 37 1008.2
20260509002016 68 90 7.0 10.0 0.00 0.00 0.00 36 1008.3
20260509001516 68 90 2.0 9.0 0.00 0.00 0.00 38 1008.3
20260509001016 68 90 5.0 9.0 0.00 0.00 0.00 35 1008.2
20260509000537 69 67 3.0 7.0 0.00 0.00 0.00 36 1008.3
20260509000016 68 67 4.0 8.0 0.00 0.00 0.00 37 1008.4
20260508235516 68 67 5.0 14.0 0.00 0.00 0.00 37 1008.2
20260508235016 69 90 6.0 10.0 0.00 0.00 0.00 37 1008.2
20260508234516 68 90 6.0 10.0 0.00 0.00 0.00 37 1008.2
20260508234016 68 67 5.0 9.0 0.00 0.00 0.00 38 1008.2
20260508233516 68 90 4.0 9.0 0.00 0.00 0.00 38 1008.1
20260508233016 69 67 5.0 10.0 0.00 0.00 0.00 38 1008.1
20260508232516 68 90 6.0 14.0 0.00 0.00 0.00 37 1008.1
20260508232036 69 67 5.0 10.0 0.00 0.00 0.00 37 1008.0
20260508231517 69 90 5.0 9.0 0.00 0.00 0.00 38 1008.1
20260508231016 69 90 5.0 10.0 0.00 0.00 0.00 37 1008.2
20260508230516 69 112 5.0 10.0 0.00 0.00 0.00 38 1008.3
20260508230017 68 90 5.0 10.0 0.00 0.00 0.00 39 1008.4
20260508225516 68 135 3.0 8.0 0.00 0.00 0.00 38 1008.2
20260508225016 69 90 7.0 13.0 0.00 0.00 0.00 40 1008.2
20260508224516 68 90 7.0 10.0 0.00 0.00 0.00 39 1008.2
20260508224016 70 90 9.0 13.0 0.00 0.00 0.00 40 1008.5
20260508223536 69 90 8.0 14.0 0.00 0.00 0.00 39 1008.5
20260508223016 70 135 5.0 17.0 0.00 0.00 0.00 38 1008.6
20260508222516 69 67 2.0 5.0 0.00 0.00 0.00 37 1008.5
20260508222016 70 90 1.0 3.0 0.00 0.00 0.00 36 1008.6
20260508221516 71 337 1.0 4.0 0.00 0.00 0.00 35 1008.7
20260508221016 70 67 1.0 3.0 0.00 0.00 0.00 35 1008.6
20260508220516 69 45 2.0 5.0 0.00 0.00 0.00 36 1008.7
20260508220016 69 112 4.0 8.0 0.00 0.00 0.00 36 1008.7
20260508215516 69 0 1.0 4.0 0.00 0.00 0.00 37 1008.7
20260508215016 68 135 2.0 5.0 0.00 0.00 0.00 37 1008.6
20260508214516 68 112 4.0 9.0 0.00 0.00 0.00 37 1008.7
20260508214016 69 180 1.0 3.0 0.00 0.00 0.00 37 1008.8
20260508213516 68 112 3.0 7.0 0.00 0.00 0.00 37 1008.6
20260508213016 69 135 4.0 9.0 0.00 0.00 0.00 39 1008.9
20260508212536 69 202 2.0 5.0 0.00 0.00 0.00 37 1008.9
20260508212016 69 202 1.0 3.0 0.00 0.00 0.00 40 1009.0
20260508211516 68 22 1.0 3.0 0.00 0.00 0.00 40 1008.9
20260508211037 67 90 6.0 14.0 0.00 0.00 0.00 39 1009.0
20260508210516 67 90 5.0 11.0 0.00 0.00 0.00 41 1009.2
20260508210016 68 180 3.0 10.0 0.00 0.00 0.00 43 1009.2
20260508205516 67 45 2.0 4.0 0.00 0.00 0.00 39 1009.3
20260508205016 67 180 1.0 4.0 0.00 0.00 0.00 39 1009.3
20260508204516 67 247 2.0 5.0 0.00 0.00 0.00 40 1009.1
20260508204058 67 270 2.0 5.0 0.00 0.00 0.00 40 1009.3
20260508203516 68 0 4.0 9.0 0.00 0.00 0.00 39 1009.3
20260508203036 67 0 4.0 10.0 0.00 0.00 0.00 42 1009.4
20260508202516 66 67 4.0 7.0 0.00 0.00 0.00 41 1009.4
20260508202016 68 45 5.0 9.0 0.00 0.00 0.00 41 1009.6
20260508201516 68 180 2.0 4.0 0.00 0.00 0.00 43 1009.6
20260508201015 67 180 3.0 5.0 0.00 0.00 0.00 40 1009.6
20260508200536 68 292 2.0 5.0 0.00 0.00 0.00 41 1009.7
20260508200015 67 22 1.0 4.0 0.00 0.00 0.00 41 1009.7
20260508195636 67 22 4.0 7.0 0.00 0.00 0.00 41 1009.8
20260508195015 65 112 2.0 7.0 0.00 0.00 0.00 42 1009.9
20260508194516 65 90 6.0 10.0 0.00 0.00 0.00 42 1010.0
20260508194136 66 22 4.0 8.0 0.00 0.00 0.00 43 1010.2
20260508193516 64 90 4.0 11.0 0.00 0.00 0.00 42 1010.0
20260508193016 65 45 3.0 9.0 0.00 0.00 0.00 44 1010.0
20260508192536 64 112 4.0 9.0 0.00 0.00 0.00 44 1010.1
20260508192036 65 67 4.0 8.0 0.00 0.00 0.00 42 1010.4
20260508191516 65 90 3.0 6.0 0.00 0.00 0.00 42 1010.4
20260508191015 65 0 3.0 6.0 0.00 0.00 0.00 43 1010.4
20260508190536 65 22 3.0 7.0 0.00 0.00 0.00 44 1010.5
20260508190017 64 45 2.0 5.0 0.00 0.00 0.00 46 1010.5
20260508185516 64 90 2.0 6.0 0.00 0.00 0.00 45 1010.7
20260508185015 63 112 3.0 7.0 0.00 0.00 0.00 46 1010.7
20260508184515 62 90 6.0 10.0 0.00 0.00 0.00 46 1010.7
20260508184016 64 67 2.0 8.0 0.00 0.00 0.00 45 1010.8
20260508183516 63 225 1.0 3.0 0.00 0.00 0.00 45 1010.8
20260508183016 62 90 3.0 9.0 0.00 0.00 0.00 47 1010.8
20260508182537 62 135 3.0 6.0 0.00 0.00 0.00 46 1011.1
20260508182015 62 135 4.0 9.0 0.00 0.00 0.00 47 1011.2
20260508181515 62 292 2.0 5.0 0.00 0.00 0.00 48 1011.2
20260508181018 62 292 2.0 5.0 0.00 0.00 0.00 51 1011.3
20260508180518 61 270 4.0 8.0 0.00 0.00 0.00 49 1011.3
20260508180017 62 292 3.0 6.0 0.00 0.00 0.00 50 1011.4
20260508175517 61 90 2.0 5.0 0.00 0.00 0.00 48 1011.5
20260508175018 61 0 2.0 5.0 0.00 0.00 0.00 50 1011.5
20260508174518 61 315 2.0 5.0 0.00 0.00 0.00 54 1011.8
20260508174017 61 315 3.0 6.0 0.00 0.00 0.00 51 1011.8
20260508173515 61 22 3.0 8.0 0.00 0.00 0.00 52 1011.8
20260508173058 61 270 2.0 5.0 0.00 0.00 0.00 51 1011.9
20260508172517 60 45 3.0 5.0 0.00 0.00 0.00 51 1011.7
20260508172018 59 315 3.0 7.0 0.00 0.00 0.00 49 1011.8
20260508171517 60 337 2.0 5.0 0.00 0.00 0.00 49 1011.9
20260508171018 60 22 2.0 5.0 0.00 0.00 0.00 53 1011.9
20260508170557 59 45 3.0 5.0 0.00 0.00 0.00 53 1012.0
20260508170035 58 90 3.0 7.0 0.00 0.00 0.00 57 1011.8
20260508165517 58 135 3.0 8.0 0.00 0.00 0.00 54 1011.9
20260508165017 59 90 2.0 6.0 0.00 0.00 0.00 52 1011.9
20260508164537 57 90 2.0 5.0 0.00 0.00 0.00 55 1012.0
20260508164017 57 45 2.0 6.0 0.00 0.00 0.00 52 1012.0
20260508163538 57 45 2.0 6.0 0.00 0.00 0.00 55 1012.0
20260508163017 57 67 3.0 9.0 0.00 0.00 0.00 54 1012.0
20260508162517 57 90 6.0 10.0 0.00 0.00 0.00 55 1012.0
20260508162018 56 90 6.0 9.0 0.00 0.00 0.00 55 1012.0
20260508161518 57 45 3.0 7.0 0.00 0.00 0.00 58 1012.0
20260508161017 56 67 3.0 7.0 0.00 0.00 0.00 58 1012.0
20260508160515 56 90 4.0 9.0 0.00 0.00 0.00 58 1011.9
20260508160037 55 90 6.0 8.0 0.00 0.00 0.00 58 1012.0
20260508155537 55 90 3.0 6.0 0.00 0.00 0.00 60 1012.0
20260508155037 55 90 6.0 9.0 0.00 0.00 0.00 60 1011.9
20260508154517 55 90 5.0 8.0 0.00 0.00 0.00 61 1012.0
20260508154037 55 90 5.0 9.0 0.00 0.00 0.00 59 1011.9
20260508153517 55 90 6.0 9.0 0.00 0.00 0.00 59 1011.9
20260508153017 55 90 6.0 9.0 0.00 0.00 0.00 61 1011.8
20260508152517 55 90 7.0 10.0 0.00 0.00 0.00 60 1011.8
20260508152017 55 112 6.0 9.0 0.00 0.00 0.00 63 1011.8
20260508151517 54 135 6.0 9.0 0.00 0.00 0.00 63 1011.8
20260508151017 54 112 6.0 8.0 0.00 0.00 0.00 65 1011.8
20260508150517 53 135 3.0 6.0 0.00 0.00 0.00 68 1011.9
20260508150017 53 135 3.0 5.0 0.00 0.00 0.00 66 1011.8
20260508145517 53 135 3.0 6.0 0.00 0.00 0.00 68 1011.9
20260508145017 53 135 3.0 6.0 0.00 0.00 0.00 71 1011.8
20260508144517 51 112 3.0 5.0 0.00 0.00 0.00 76 1011.9
20260508144017 50 157 1.0 4.0 0.00 0.00 0.00 78 1012.0
20260508143537 49 157 1.0 2.0 0.00 0.00 0.00 79 1011.9
20260508143017 49 157 1.0 3.0 0.00 0.00 0.00 79 1011.7
20260508142537 48 157 1.0 3.0 0.00 0.00 0.00 79 1011.7
20260508142017 48 157 2.0 3.0 0.00 0.00 0.00 80 1011.7
20260508141537 48 202 1.0 3.0 0.00 0.00 0.00 81 1011.7
20260508141021 48 202 2.0 3.0 0.00 0.00 0.00 82 1011.7
20260508140517 47 202 2.0 5.0 0.00 0.00 0.00 82 1011.8
20260508140038 47 180 4.0 8.0 0.00 0.00 0.00 81 1011.8
20260508135517 47 180 5.0 7.0 0.00 0.00 0.00 81 1011.8
20260508135037 47 180 3.0 6.0 0.00 0.00 0.00 81 1011.9
20260508134517 47 157 3.0 5.0 0.00 0.00 0.00 81 1011.8
20260508134017 47 135 3.0 6.0 0.00 0.00 0.00 81 1011.9
20260508133517 47 157 4.0 7.0 0.00 0.00 0.00 80 1011.9
20260508133017 47 180 4.0 7.0 0.00 0.00 0.00 80 1011.9
20260508132517 47 135 3.0 6.0 0.00 0.00 0.00 80 1012.0
20260508132017 47 135 2.0 3.0 0.00 0.00 0.00 81 1012.2
20260508131517 47 180 2.0 4.0 0.00 0.00 0.00 80 1012.0
20260508131017 47 180 5.0 8.0 0.00 0.00 0.00 82 1011.9
20260508130517 47 180 4.0 6.0 0.00 0.00 0.00 83 1011.9
20260508130017 46 180 3.0 5.0 0.00 0.00 0.00 84 1011.8
20260508125517 46 67 1.0 2.0 0.00 0.00 0.00 84 1011.9
20260508125017 47 315 1.0 3.0 0.00 0.00 0.00 82 1011.8
20260508124517 47 0.0 0.0 0.00 0.00 0.00 80 1011.9
20260508124017 47 0.0 2.0 0.00 0.00 0.00 81 1012.0
20260508123517 47 0.0 0.0 0.00 0.00 0.00 81 1012.0
20260508123017 47 0.0 2.0 0.00 0.00 0.00 81 1012.1
20260508122517 47 0.0 2.0 0.00 0.00 0.00 81 1012.1
20260508122057 47 315 1.0 3.0 0.00 0.00 0.00 81 1012.2
20260508121517 47 315 2.0 5.0 0.00 0.00 0.00 82 1012.3
20260508121016 46 315 3.0 11.0 0.00 0.00 0.00 84 1012.4
20260508120517 45 315 3.0 11.0 0.00 0.00 0.00 85 1012.6
20260508120017 45 270 2.0 5.0 0.00 0.00 0.00 85 1012.7
20260508115537 45 270 1.0 3.0 0.00 0.00 0.00 85 1012.5
20260508115017 45 270 2.0 4.0 0.00 0.00 0.00 87 1012.2
20260508114517 44 270 1.0 3.0 0.00 0.00 0.00 88 1012.0
20260508114017 43 292 3.0 5.0 0.00 0.00 0.00 88 1012.2
20260508113517 42 270 1.0 4.0 0.00 0.00 0.00 89 1012.2
20260508113038 42 0.0 0.0 0.00 0.00 0.00 90 1011.8
20260508112516 41 0.0 1.0 0.00 0.00 0.00 90 1011.6
20260508112017 41 0.0 2.0 0.00 0.00 0.00 89 1011.2
20260508111516 41 0.0 2.0 0.00 0.00 0.00 89 1011.2
20260508111016 42 0.0 1.0 0.00 0.00 0.00 89 1011.2
20260508110516 42 270 1.0 2.0 0.00 0.00 0.00 88 1011.2
20260508110017 42 225 2.0 3.0 0.00 0.00 0.00 89 1011.3
20260508105516 42 0.0 1.0 0.00 0.00 0.00 89 1011.1
20260508105017 42 0.0 1.0 0.00 0.00 0.00 89 1011.0
20260508104516 42 225 2.0 4.0 0.00 0.00 0.00 88 1011.1
20260508104017 42 225 3.0 4.0 0.00 0.00 0.00 88 1010.9
20260508103517 43 225 3.0 4.0 0.00 0.00 0.00 87 1011.0
20260508103016 44 0 2.0 4.0 0.00 0.00 0.00 88 1011.1
20260508102516 44 0.0 1.0 0.00 0.00 0.00 87 1011.2
20260508102016 44 0 1.0 2.0 0.00 0.00 0.00 87 1011.1
20260508101517 44 0 2.0 3.0 0.00 0.00 0.00 87 1011.3
20260508101016 45 337 3.0 4.0 0.00 0.00 0.00 87 1011.3
20260508100516 45 22 2.0 4.0 0.00 0.00 0.00 87 1011.1
20260508100017 44 0 3.0 4.0 0.00 0.00 0.00 86 1011.4
20260508095517 44 0 3.0 5.0 0.00 0.00 0.00 86 1011.3
20260508095016 44 0 2.0 3.0 0.00 0.00 0.00 87 1011.1
20260508094517 44 0 3.0 5.0 0.00 0.00 0.00 86 1011.1
20260508094016 43 0 3.0 4.0 0.00 0.00 0.00 85 1010.8
20260508093516 44 202 1.0 3.0 0.00 0.00 0.00 86 1010.6
20260508093017 43 0.0 0.0 0.00 0.00 0.00 86 1010.3
20260508092517 43 0.0 1.0 0.00 0.00 0.00 85 1010.1
20260508092017 43 202 1.0 2.0 0.00 0.00 0.00 86 1010.2
20260508091516 43 202 3.0 4.0 0.00 0.00 0.00 85 1010.3
20260508091036 43 202 2.0 3.0 0.00 0.00 0.00 85 1010.2
20260508090516 43 202 2.0 3.0 0.00 0.00 0.00 86 1010.4
20260508090016 44 202 3.0 4.0 0.00 0.00 0.00 86 1010.2
20260508085516 45 202 5.0 7.0 0.00 0.00 0.00 88 1010.4
20260508085017 44 202 4.0 6.0 0.00 0.00 0.00 89 1010.2
20260508084538 43 202 2.0 3.0 0.00 0.00 0.00 90 1010.4
20260508084016 42 202 3.0 4.0 0.00 0.00 0.00 89 1010.2
20260508083516 42 225 2.0 3.0 0.00 0.00 0.00 89 1010.2
20260508083017 42 0.0 0.0 0.00 0.00 0.00 88 1010.1
20260508082516 42 0.0 0.0 0.00 0.00 0.00 87 1010.4
20260508082016 43 0.0 0.0 0.00 0.00 0.00 88 1010.6
20260508081516 43 0.0 0.0 0.00 0.00 0.00 90 1010.8
20260508081016 43 0.0 0.0 0.00 0.00 0.00 89 1010.9
20260508080537 42 0.0 0.0 0.00 0.00 0.00 88 1011.1
20260508080016 42 0.0 0.0 0.00 0.00 0.00 89 1011.2
20260508075516 41 0.0 0.0 0.00 0.00 0.00 87 1011.1
20260508075036 42 0.0 0.0 0.00 0.00 0.00 84 1011.2
20260508074516 44 0.0 0.0 0.00 0.00 0.00 84 1011.4
20260508074016 45 0.0 0.0 0.00 0.00 0.00 83 1011.4
20260508073516 45 0.0 0.0 0.00 0.00 0.00 82 1011.4
20260508073016 46 0.0 0.0 0.00 0.00 0.00 83 1011.5
20260508072516 46 0.0 0.0 0.00 0.00 0.00 83 1011.5
20260508072016 46 0.0 0.0 0.00 0.00 0.00 82 1011.5
20260508071516 46 0.0 0.0 0.00 0.00 0.00 82 1011.5
20260508071016 46 0.0 0.0 0.00 0.00 0.00 82 1011.6
20260508070516 46 0.0 0.0 0.00 0.00 0.00 83 1011.7
20260508070016 47 0.0 0.0 0.00 0.00 0.00 83 1011.4
20260508065516 47 0.0 0.0 0.00 0.00 0.00 82 1011.3
20260508065016 48 0.0 1.0 0.00 0.00 0.00 82 1011.4
20260508064516 48 225 1.0 2.0 0.00 0.00 0.00 81 1011.3
20260508064056 48 225 3.0 3.0 0.00 0.00 0.00 79 1011.4
20260508063517 49 225 1.0 3.0 0.00 0.00 0.00 76 1011.3
20260508063016 50 0.0 0.0 0.00 0.00 0.00 77 1011.2
20260508062516 50 0 1.0 2.0 0.00 0.00 0.00 76 1011.2
20260508062016 51 0 2.0 4.0 0.00 0.00 0.00 75 1011.2
20260508061516 51 0.0 2.0 0.00 0.00 0.00 74 1011.3
20260508061016 51 0.0 3.0 0.00 0.00 0.00 74 1011.2
20260508060516 52 45 1.0 2.0 0.00 0.00 0.00 73 1011.4
20260508060021 51 67 2.0 3.0 0.00 0.00 0.00 75 1011.2
20260508055517 51 67 2.0 3.0 0.00 0.00 0.00 75 1011.3
20260508055037 52 67 3.0 9.0 0.00 0.00 0.00 72 1011.6
20260508054517 52 45 2.0 8.0 0.00 0.00 0.00 73 1011.8
20260508054017 52 67 2.0 3.0 0.00 0.00 0.00 73 1011.8
20260508053517 53 112 3.0 5.0 0.00 0.00 0.00 71 1011.4
20260508053017 52 180 5.0 9.0 0.00 0.00 0.00 71 1011.3
20260508052538 52 180 4.0 9.0 0.00 0.00 0.00 72 1011.3
20260508052018 52 180 5.0 7.0 0.00 0.00 0.00 72 1011.3
20260508051517 52 202 6.0 10.0 0.00 0.00 0.00 74 1011.2
20260508051017 51 225 6.0 11.0 0.00 0.00 0.00 75 1011.8
20260508050517 52 225 6.0 8.0 0.00 0.00 0.00 74 1011.5
20260508050017 51 202 4.0 6.0 0.00 0.00 0.00 75 1011.1
20260508045557 51 225 5.0 6.0 0.00 0.00 0.00 76 1010.9
20260508045017 52 337 2.0 4.0 0.00 0.00 0.00 75 1010.8
20260508044538 52 337 1.0 2.0 0.00 0.00 0.00 72 1010.8
20260508044037 52 0.0 1.0 0.00 0.00 0.00 71 1010.9
20260508043519 52 337 1.0 2.0 0.00 0.00 0.00 72 1010.7
20260508043037 52 0.0 0.0 0.00 0.00 0.00 72 1010.6
20260508042518 52 0.0 1.0 0.00 0.00 0.00 71 1010.5
20260508042037 52 45 1.0 2.0 0.00 0.00 0.00 71 1010.5
20260508041517 52 67 2.0 4.0 0.00 0.00 0.00 71 1010.5
20260508041017 52 45 1.0 3.0 0.00 0.00 0.00 71 1010.5
20260508040517 52 67 3.0 6.0 0.00 0.00 0.00 72 1010.7
20260508040018 53 112 6.0 8.0 0.00 0.00 0.00 71 1011.1
20260508035537 54 247 4.0 7.0 0.00 0.00 0.00 68 1011.0
20260508035017 54 247 2.0 4.0 0.00 0.00 0.00 63 1011.6